Location: Dissen
(37.5842°N, 89.8420°W)
Time: 00:57:24
(UTC+00:00)

BlueWalker 3 - Visible Passes

Search period start: 13 October 2024 00:00
Search period end: 23 October 2024 00:00
Orbit: 472 x 484 km, 53.2° (Epoch: 12 October)

Date Brightness Start Highest point End Pass type
(mag) Time Alt. Az. Time Alt. Az. Time Alt. Az.
15 Oct 4.6 11:33:28 10° N 11:33:55 10° NNE 11:34:23 10° NNE visible
19 Oct 3.8 11:15:11 10° NNW 11:18:16 24° NNE 11:21:19 10° E visible
20 Oct 3.9 10:46:59 12° NNW 10:49:33 22° NNE 10:52:29 10° E visible
21 Oct 4.0 10:19:45 18° N 10:20:47 20° NNE 10:23:36 10° E visible
22 Oct 4.4 09:52:35 18° NE 09:52:35 18° NE 09:54:39 10° ENE visible
22 Oct 1.8 11:26:46 11° NW 11:30:16 67° SW 11:33:55 10° SE visible
